Weather Roundup
Issued by NWS Springfield, MO

Home | Current Version | Previous Version | Text Only | Print | Product List | Glossary On
Versions: 1 2 3 4 5 6 7 8 9 10 11 12 13 14 15 16 17 18 19 20 21 22 23 24 25 26 27 28 29 30 31 32 33 34 35 36 37 38 39 40 41 42 43 44 45 46 47 48 49 50
000
NZUS99 KSGF 281607
HRRSGF

HOURLY WEATHER
NATIONAL WEATHER SERVICE SPRINGFIELD MO
1100 AM CDT THU AUG 28 2014

......SGF CWA......

CITY           SKY/WX    TMP DP  RH WIND       PRES   REMARKS
SPRINGFIELD    MOSUNNY   85  67  54 S14       30.04S
JOPLIN         MOSUNNY   87  66  49 SW12      30.02S
WEST PLAINS    MOSUNNY   84  66  54 S10       30.08S
ROLLA          SUNNY     86  68  54 S13       30.04S
OSAGE BEACH    SUNNY     88  70  55 S8        30.03S HX  92
BRANSON        MOSUNNY   90  66  45 S6        30.06F HX  92

......SURROUNDING SGF CWA......

CITY           SKY/WX    TMP DP  RH WIND       PRES   REMARKS
CHANUTE        SUNNY     86  66  51 S12       29.99F
PARSONS        SUNNY     87  67  51 SW10      30.01S HX  90
COFFEYVILLE    MOSUNNY   86  67  52 S12       29.99S
EMPORIA        MOSUNNY   86  67  52 S13       29.98S
GROVE OK       SUNNY     88  68  51 S8        30.02S HX  91
ROGERS AR      SUNNY     85  61  44 SE12      30.06S
SILOAM SPRINGS SUNNY     84  64  51 SW13      30.05S
HARRISON AR    MOSUNNY   82  69  64 S9        30.07S
NEAR YELLVILLE MOSUNNY   84  64  51 SE7       30.05S

......KANSAS AND MISSOURI......

CITY           SKY/WX    TMP DP  RH WIND       PRES   REMARKS
KANSAS CTY INT PTSUNNY   83  71  67 SW5       29.99S
DOWNTOWN KC    MOSUNNY   86  70  58 VRB7      29.97S HX  90
COLUMBIA       SUNNY     88  70  55 S12       30.03S HX  93
SEDALIA        MOSUNNY   87  72  60 S9        30.02R HX  93
ST JOSEPH      PTSUNNY   80  73  79 CALM      29.98S
ST LOUIS       MOSUNNY   84  71  65 SE8       30.05S
SPIRIT OF STL  MOSUNNY   84  72  67 CALM      30.03S
KIRKSVILLE     PTSUNNY   78  72  81 SE9       30.02F
WICHITA        LGT RAIN  80  65  59 S8        29.96F
TOPEKA         SUNNY     87  70  56 SW7       29.96F HX  92
OLATHE         SUNNY     84  71  65 SW6       29.99S

......TENNESSEE......

CITY           SKY/WX    TMP DP  RH WIND       PRES   REMARKS
MEMPHIS        MOSUNNY   90  61  37 SW6       30.04S HX  90
NASHVILLE      MOSUNNY   87  71  58 SE5       30.06R HX  93

......ARKANSAS.......

CITY           SKY/WX    TMP DP  RH WIND       PRES   REMARKS
FAYETTEVILLE   SUNNY     84  65  52 S9        30.05S
FT SMITH       SUNNY     87  68  52 SE5       30.01R HX  90
LITTLE ROCK    MOSUNNY   87  67  51 S6        30.03S HX  90

......OKLAHOMA.......

CITY           SKY/WX    TMP DP  RH WIND       PRES   REMARKS
TULSA          MOSUNNY   87  66  49 S10       29.97S
PONCA CITY     SUNNY     87  63  44 SW9G17    29.96F
MCALESTER      SUNNY     86  68  54 S7        30.01R
OKLAHOMA CITY  MOSUNNY   87  62  43 S14       29.97F

......IOWA............

CITY           SKY/WX    TMP DP  RH WIND       PRES   REMARKS
DES MOINES     LGT RAIN  69  67  93 SE9       30.02S FOG
QUAD CITIES    PTSUNNY   73  62  68 E10       30.08S

......ILLINOIS........

CITY           SKY/WX    TMP DP  RH WIND       PRES   REMARKS
QUINCY         MOSUNNY   81  71  71 S9        30.03F
CHICAGO        MOSUNNY   73  52  47 E8        30.13S



USA.gov is the U.S. government's official web portal to all federal, state and local government web resources and services.